AL, 03, 1924081606,   , BEST,   0, 105N,  546W,  25,     , TD, , , , , , , , , , , , , ,    UNNAMED
AL, 03, 1924081612,   , BEST,   0, 110N,  560W,  25,     , TD, , , , , , , , , , , , , ,    UNNAMED
AL, 03, 1924081618,   , BEST,   0, 116N,  575W,  25,     , TD, , , , , , , , , , , , , ,    UNNAMED
AL, 03, 1924081700,   , BEST,   0, 123N,  590W,  30,     , TD, , , , , , , , , , , , , ,    UNNAMED
AL, 03, 1924081706,   , BEST,   0, 130N,  604W,  30,     , TD, , , , , , , , , , , , , ,    UNNAMED
AL, 03, 1924081712,   , BEST,   0, 138N,  615W,  30,     , TD, , , , , , , , , , , , , ,    UNNAMED
AL, 03, 1924081718,   , BEST,   0, 145N,  623W,  30,     , TD, , , , , , , , , , , , , ,    UNNAMED
AL, 03, 1924081800,   , BEST,   0, 152N,  629W,  30,     , TD, , , , , , , , , , , , , ,    UNNAMED
AL, 03, 1924081806,   , BEST,   0, 160N,  635W,  30,     , TD, , , , , , , , , , , , , ,    UNNAMED
AL, 03, 1924081812,   , BEST,   0, 168N,  640W,  30,     , TD, , , , , , , , , , , , , ,    UNNAMED
AL, 03, 1924081818,   , BEST,   0, 176N,  646W,  35,     , TS, , , , , , , , , , , , , ,    UNNAMED
AL, 03, 1924081900,   , BEST,   0, 185N,  653W,  40,     , TS, , , , , , , , , , , , , ,    UNNAMED
AL, 03, 1924081906,   , BEST,   0, 194N,  660W,  40,     , TS, , , , , , , , , , , , , ,    UNNAMED
AL, 03, 1924081912,   , BEST,   0, 202N,  667W,  45,     , TS, , , , , , , , , , , , , ,    UNNAMED
AL, 03, 1924081918,   , BEST,   0, 210N,  673W,  50,     , TS, , , , , , , , , , , , , ,    UNNAMED
AL, 03, 1924082000,   , BEST,   0, 217N,  679W,  55,     , TS, , , , , , , , , , , , , ,    UNNAMED
AL, 03, 1924082006,   , BEST,   0, 225N,  685W,  60,     , TS, , , , , , , , , , , , , ,    UNNAMED
AL, 03, 1924082012,   , BEST,   0, 232N,  692W,  60,     , TS, , , , , , , , , , , , , ,    UNNAMED
AL, 03, 1924082018,   , BEST,   0, 240N,  701W,  60,     , TS, , , , , , , , , , , , , ,    UNNAMED
AL, 03, 1924082100,   , BEST,   0, 250N,  712W,  65,     , HU, , , , , , , , , , , , , ,    UNNAMED
AL, 03, 1924082106,   , BEST,   0, 259N,  722W,  70,     , HU, , , , , , , , , , , , , ,    UNNAMED
AL, 03, 1924082112,   , BEST,   0, 267N,  731W,  75,     , HU, , , , , , , , , , , , , ,    UNNAMED
AL, 03, 1924082118,   , BEST,   0, 273N,  737W,  80,     , HU, , , , , , , , , , , , , ,    UNNAMED
AL, 03, 1924082200,   , BEST,   0, 276N,  742W,  85,     , HU, , , , , , , , , , , , , ,    UNNAMED
AL, 03, 1924082206,   , BEST,   0, 279N,  745W,  90,     , HU, , , , , , , , , , , , , ,    UNNAMED
AL, 03, 1924082212,   , BEST,   0, 280N,  748W,  95,     , HU, , , , , , , , , , , , , ,    UNNAMED
AL, 03, 1924082218,   , BEST,   0, 281N,  750W, 100,     , HU, , , , , , , , , , , , , ,    UNNAMED
AL, 03, 1924082300,   , BEST,   0, 282N,  753W, 100,     , HU, , , , , , , , , , , , , ,    UNNAMED
AL, 03, 1924082306,   , BEST,   0, 282N,  757W, 105,     , HU, , , , , , , , , , , , , ,    UNNAMED
AL, 03, 1924082312,   , BEST,   0, 283N,  762W, 105,     , HU, , , , , , , , , , , , , ,    UNNAMED
AL, 03, 1924082318,   , BEST,   0, 283N,  766W, 105,     , HU, , , , , , , , , , , , , ,    UNNAMED
AL, 03, 1924082400,   , BEST,   0, 282N,  770W, 105,     , HU, , , , , , , , , , , , , ,    UNNAMED
AL, 03, 1924082406,   , BEST,   0, 282N,  773W, 105,     , HU, , , , , , , , , , , , , ,    UNNAMED
AL, 03, 1924082412,   , BEST,   0, 282N,  775W, 100,     , HU, , , , , , , , , , , , , ,    UNNAMED
AL, 03, 1924082418,   , BEST,   0, 286N,  777W,  95,     , HU, , , , , , , , , , , , , ,    UNNAMED
AL, 03, 1924082500,   , BEST,   0, 294N,  779W,  90,     , HU, , , , , , , , , , , , , ,    UNNAMED
AL, 03, 1924082506,   , BEST,   0, 302N,  777W,  85,     , HU, , , , , , , , , , , , , ,    UNNAMED
AL, 03, 1924082512,   , BEST,   0, 312N,  770W,  85,  969, HU, , , , , , , , , , , , , ,    UNNAMED
AL, 03, 1924082518,   , BEST,   0, 327N,  763W,  90,     , HU, , , , , , , , , , , , , ,    UNNAMED
AL, 03, 1924082600,   , BEST,   0, 344N,  755W,  90,     , HU, , , , , , , , , , , , , ,    UNNAMED
AL, 03, 1924082606,   , BEST,   0, 363N,  743W,  90,  963, HU, , , , , , , , , , , , , ,    UNNAMED
AL, 03, 1924082612,   , BEST,   0, 385N,  729W,  85,     , HU, , , , , , , , , , , , , ,    UNNAMED
AL, 03, 1924082618,   , BEST,   0, 409N,  703W,  80,  968, HU, , , , , , , , , , , , , ,    UNNAMED
AL, 03, 1924082700,   , BEST,   0, 435N,  672W,  75,     , EX, , , , , , , , , , , , , ,    UNNAMED
AL, 03, 1924082706,   , BEST,   0, 463N,  631W,  65,     , EX, , , , , , , , , , , , , ,    UNNAMED
AL, 03, 1924082712,   , BEST,   0, 490N,  598W,  60,     , EX, , , , , , , , , , , , , ,    UNNAMED
AL, 03, 1924082718,   , BEST,   0, 510N,  560W,  55,     , EX, , , , , , , , , , , , , ,    UNNAMED
AL, 03, 1924082800,   , BEST,   0, 525N,  526W,  50,     , EX, , , , , , , , , , , , , ,    UNNAMED
AL, 03, 1924082806,   , BEST,   0, 540N,  488W,  45,     , EX, , , , , , , , , , , , , ,    UNNAMED
AL, 03, 1924082812,   , BEST,   0, 553N,  452W,  45,     , EX, , , , , , , , , , , , , ,    UNNAMED
